Simultaneous Nadir Overpasses (SNOs) Predictions

Prediction of SNOs between AQUA and GOES-15 Satellite Orbit:

Table of predicted SNOs for the next 14.0 days since TLE Epoch: 4/6/2018
Index Date Time (AQUA) AQUA Lat,Lon GOES-15 Lat,Lon Distance(km) Time Diff (sec)
1 04/07/2018 10:32:41 -0.09,-134.12 0.08,-135.03 103.24 80
2 04/07/2018 22:54:05 -1.00,-139.31 -0.08,-135.05 484.47 80
3 04/09/2018 10:20:31 -0.77,-131.17 0.09,-135.09 446.39 80
4 04/09/2018 22:41:54 -0.37,-136.35 -0.09,-135.11 141.47 80
5 04/11/2018 22:29:43 0.26,-133.40 -0.09,-135.17 201.12 80
6 04/12/2018 10:51:00 0.80,-138.57 0.09,-135.18 384.66 80
7 04/14/2018 10:38:49 0.17,-135.62 0.09,-135.24 42.76 80
8 04/16/2018 10:26:38 -0.47,-132.66 0.09,-135.29 298.48 80
9 04/16/2018 22:48:02 -0.60,-137.86 -0.09,-135.30 289.80 80
10 04/18/2018 22:35:50 -0.02,-134.89 -0.09,-135.34 50.44 80




NCC Satellite Simultaneous Nadir Overpasses (SNOs) Prediction Service
